This is the latest recevied weather packets stored in our database for station/object ON4CCM-13. If no packets are shown the sender has not sent any weather packets the latest 10 day(s).
| Time | Temp. | Humidity | Pressure | Rain* | Wind** | Luminosity | Snow |
|---|---|---|---|---|---|---|---|
| 1777692644 | 8.89° C | 59% | 1021.5 hPa | 0 mm | - | - | - |
| 1777688418 | 8.33° C | 57% | 1022 hPa | 0 mm | - | - | - |
| 1777683649 | 8.89° C | 54% | 1022.3 hPa | 0 mm | - | - | - |
| 1777682443 | 8.89° C | 50% | 1022.4 hPa | 0 mm | - | - | - |
| 1777681234 | 9.44° C | 46% | 1022.5 hPa | 0 mm | - | - | - |
| 1777680630 | 9.44° C | 46% | 1022.5 hPa | 0 mm | - | - | - |
| 1777678819 | 10° C | 44% | 1022.9 hPa | 0 mm | - | - | - |
| 1777673446 | 11.11° C | 39% | 1023.3 hPa | 0 mm | - | - | - |
| 1777668073 | 13.33° C | 21% | 1023.4 hPa | 0 mm | - | - | - |
| 1777666264 | 15° C | 14% | 1023.4 hPa | 0 mm | - | - | - |
| 1777657268 | 22.22° C | - | 1022.9 hPa | 0 mm | - | - | - |
| 1777655456 | 23.89° C | - | 1022.9 hPa | 0 mm | - | - | - |
| 1777648875 | 25.56° C | - | 1023.5 hPa | 0 mm | - | - | - |
| 1777645857 | 25.56° C | - | 1024.1 hPa | 0 mm | - | - | - |
| 1777645273 | 25.56° C | - | 1024.1 hPa | 0 mm | - | - | - |
| 1777643442 | 25.56° C | - | 1024.4 hPa | 0 mm | - | - | - |
| 1777640420 | 24.44° C | - | 1024.9 hPa | 0 mm | - | - | - |
| 1777639837 | 24.44° C | - | 1025 hPa | 0 mm | - | - | - |
| 1777637462 | 24.44° C | - | 1025.6 hPa | 0 mm | - | - | - |
| 1777636256 | 23.33° C | - | 1025.9 hPa | 0 mm | - | - | - |
| 1777629674 | 21.11° C | - | 1026.9 hPa | 0 mm | - | - | - |
| 1777623639 | 19.44° C | - | 1027.4 hPa | 0 mm | - | - | - |
| 1777622429 | 19.44° C | - | 1027.5 hPa | 0 mm | - | - | - |
| 1777618867 | 17.22° C | 10% | 1027.4 hPa | 0 mm | - | - | - |
| 1777614641 | 12.22° C | 28% | 1027.6 hPa | 0 mm | - | - | - |
* Rain latest hour (hover to see other rain measurements)
** Current wind speed in m/s (hover to see current wind gust speed)